Location: Madison
(43.0730°N, 89.3819°W)
Time: 03:47:05
(UTC-06:00)

ISS - Pass Details

Date: 25 January 2019
Orbit: 403 x 411 km, 51.6° (Epoch: 16 February)

Event Time Altitude Azimuth Distance (km) Brightness Sun altitude
Rises 17:36:22 0° 227° (SW) 2,319 1.4 -6.9°
Reaches altitude 10° 17:38:27 10° 223° (SW) 1,464 0.1 -7.2°
Maximum altitude 17:41:42 60° 143° (SE) 471 -3.6 -7.8°
Enters shadow 17:44:47 11° 63° (ENE) 1,407 -1.8 -8.3°
